Location: Newark
(49.8348°N, 24.0280°E)
Time: 06:16:59
(UTC+00:00)

Transit 2A - Pass Details

Date: 26 January 2020
Orbit: 600 x 959 km, 66.7° (Epoch: 17 February)

Event Time Altitude Azimuth Distance (km) Brightness Sun altitude
Rises 02:33:08 0° 323° (NW) 2,955 - -34.0°
Reaches altitude 10° 02:35:20 10° 323° (NW) 2,080 - -33.7°
Maximum altitude 02:40:03 86° 235° (SW) 710 - -32.9°
Exits shadow 02:43:46 19° 147° (SSE) 1,720 8.0 -32.3°
Drops below altitude 10° 02:45:13 10° 147° (SSE) 2,280 8.7 -32.1°
Sets 02:47:44 0° 147° (SSE) 3,263 9.6 -31.7°
